SWA1518 KMCO-KMIA

Flight info

Callsign SWA1518
Flight time 0h 42m
Altitude 23000
Route DDANY3 DDANY CSTAL3
Aircraft B737/M-SADE2E3GIJ4RWZ/LB1D1

Departure

Time 2026-04-25 21:25
Airport Orlando International Airport (KMCO)

Arrival

Time 2026-04-25 22:07
Airport Miami International Airport (KMIA)
Time Latitude Longitude Altitude Speed Heading
2026-04-25 21:01 28.43593 -81.30331 94 ft 0 kts 165°
2026-04-25 21:06 28.43586 -81.30361 94 ft 0 kts 165°
2026-04-25 21:06 28.43620 -81.30210 94 ft 0 kts 165°
2026-04-25 21:07 28.43587 -81.30298 94 ft 0 kts 165°
2026-04-25 21:07 28.43591 -81.30285 94 ft 0 kts 165°
2026-04-25 21:14 28.43616 -81.30292 94 ft 5 kts 165°
2026-04-25 21:14 28.43647 -81.30303 94 ft 5 kts 160°
2026-04-25 21:15 28.43667 -81.30313 94 ft 2 kts 139°
2026-04-25 21:15 28.43673 -81.30323 94 ft 2 kts 87°
2026-04-25 21:15 28.43669 -81.30339 96 ft 3 kts 57°
2026-04-25 21:15 28.43661 -81.30351 94 ft 4 kts 53°
2026-04-25 21:16 28.43678 -81.30326 95 ft 3 kts 53°
2026-04-25 21:16 28.43686 -81.30313 94 ft 2 kts 53°
2026-04-25 21:16 28.43693 -81.30303 94 ft 2 kts 53°
2026-04-25 21:16 28.43696 -81.30299 93 ft 0 kts 53°
2026-04-25 21:20 28.43697 -81.30297 95 ft 2 kts 53°
2026-04-25 21:20 28.43708 -81.30281 94 ft 6 kts 50°
2026-04-25 21:20 28.43755 -81.30215 94 ft 10 kts 52°
2026-04-25 21:20 28.43796 -81.30156 94 ft 9 kts 51°
2026-04-25 21:21 28.43828 -81.30094 93 ft 9 kts 79°
2026-04-25 21:21 28.43824 -81.30022 94 ft 9 kts 97°
2026-04-25 21:21 28.43793 -81.29951 94 ft 12 kts 129°
2026-04-25 21:21 28.43718 -81.29897 94 ft 14 kts 164°
2026-04-25 21:22 28.43621 -81.29889 95 ft 14 kts 179°
2026-04-25 21:22 28.43555 -81.29871 94 ft 5 kts 127°
2026-04-25 21:22 28.43549 -81.29829 96 ft 5 kts 90°
2026-04-25 21:22 28.43549 -81.29793 96 ft 5 kts 90°
2026-04-25 21:23 28.43549 -81.29751 96 ft 5 kts 90°
2026-04-25 21:23 28.43549 -81.29710 94 ft 5 kts 90°
2026-04-25 21:23 28.43549 -81.29669 95 ft 5 kts 90°
2026-04-25 21:23 28.43548 -81.29631 95 ft 5 kts 104°
2026-04-25 21:24 28.43528 -81.29599 96 ft 6 kts 143°
2026-04-25 21:24 28.43489 -81.29589 96 ft 0 kts 183°
2026-04-25 21:24 28.43306 -81.29586 98 ft 65 kts 180°
2026-04-25 21:25 28.42586 -81.29579 97 ft 138 kts 180°
2026-04-25 21:25 28.41501 -81.29568 486 ft 163 kts 179°
2026-04-25 21:25 28.40389 -81.29523 1447 ft 157 kts 179°
2026-04-25 21:25 28.39238 -81.29486 2086 ft 179 kts 179°
2026-04-25 21:26 28.37939 -81.29055 2399 ft 213 kts 149°
2026-04-25 21:26 28.36597 -81.28072 2720 ft 246 kts 147°
2026-04-25 21:26 28.35134 -81.27001 3537 ft 253 kts 146°
2026-04-25 21:26 28.33837 -81.25636 4400 ft 261 kts 123°
2026-04-25 21:27 28.33151 -81.23704 5251 ft 270 kts 103°
2026-04-25 21:27 28.32820 -81.21580 6364 ft 277 kts 100°
2026-04-25 21:27 28.32532 -81.19392 7475 ft 285 kts 99°
2026-04-25 21:27 28.32241 -81.17131 8546 ft 293 kts 99°
2026-04-25 21:28 28.31937 -81.14812 9606 ft 300 kts 99°
2026-04-25 21:28 28.31620 -81.12436 10558 ft 312 kts 99°
2026-04-25 21:28 28.31273 -81.09885 10930 ft 342 kts 98°
2026-04-25 21:28 28.30895 -81.07135 11557 ft 360 kts 98°
2026-04-25 21:29 28.30506 -81.04335 12457 ft 367 kts 98°
2026-04-25 21:29 28.30104 -81.01460 13411 ft 372 kts 98°
2026-04-25 21:29 28.29693 -80.98534 14369 ft 377 kts 98°
2026-04-25 21:29 28.29280 -80.95589 15322 ft 382 kts 98°
2026-04-25 21:30 28.28858 -80.92594 16210 ft 387 kts 98°
2026-04-25 21:30 28.28437 -80.89609 17061 ft 392 kts 97°
2026-04-25 21:30 28.27953 -80.86494 17893 ft 398 kts 101°
2026-04-25 21:30 28.27434 -80.84480 18411 ft 403 kts 109°
2026-04-25 21:31 28.26007 -80.80517 19549 ft 408 kts 112°
2026-04-25 21:31 28.24888 -80.77538 20369 ft 411 kts 112°
2026-04-25 21:31 28.23786 -80.74529 21198 ft 414 kts 111°
2026-04-25 21:31 28.22687 -80.71511 21955 ft 417 kts 114°
2026-04-25 21:32 28.21068 -80.68762 22572 ft 423 kts 134°
2026-04-25 21:32 28.18756 -80.66719 22903 ft 427 kts 152°
2026-04-25 21:32 28.15971 -80.65552 22935 ft 426 kts 166°
2026-04-25 21:32 28.13113 -80.64702 22918 ft 424 kts 167°
2026-04-25 21:33 28.10253 -80.63895 22920 ft 424 kts 167°
2026-04-25 21:33 28.07376 -80.63083 22925 ft 427 kts 167°
2026-04-25 21:33 28.04488 -80.62253 22924 ft 429 kts 167°
2026-04-25 21:33 28.01593 -80.61405 22922 ft 430 kts 166°
2026-04-25 21:34 27.98736 -80.60557 22915 ft 431 kts 166°
2026-04-25 21:34 27.95837 -80.59690 22903 ft 430 kts 166°
2026-04-25 21:34 27.92948 -80.58823 22910 ft 430 kts 166°
2026-04-25 21:34 27.90054 -80.57955 22893 ft 429 kts 166°
2026-04-25 21:35 27.87172 -80.57091 22906 ft 428 kts 166°
2026-04-25 21:35 27.84295 -80.56229 22907 ft 427 kts 166°
2026-04-25 21:35 27.81424 -80.55370 22915 ft 427 kts 166°
2026-04-25 21:35 27.78549 -80.54511 22919 ft 427 kts 166°
2026-04-25 21:36 27.75678 -80.53653 22916 ft 427 kts 166°
2026-04-25 21:36 27.72809 -80.52796 22916 ft 427 kts 166°
2026-04-25 21:36 27.69935 -80.51939 22916 ft 427 kts 166°
2026-04-25 21:36 27.67064 -80.51083 22922 ft 427 kts 166°
2026-04-25 21:37 27.64199 -80.50167 22931 ft 428 kts 163°
2026-04-25 21:37 27.62331 -80.49471 22932 ft 428 kts 162°
2026-04-25 21:37 27.58578 -80.47958 22931 ft 428 kts 161°
2026-04-25 21:37 27.55774 -80.46801 22934 ft 428 kts 161°
2026-04-25 21:38 27.52970 -80.45653 22927 ft 429 kts 161°
2026-04-25 21:38 27.50165 -80.44519 22927 ft 428 kts 161°
2026-04-25 21:38 27.47355 -80.43395 22923 ft 428 kts 161°
2026-04-25 21:38 27.44582 -80.42295 22926 ft 428 kts 162°
2026-04-25 21:39 27.41775 -80.41185 22925 ft 428 kts 162°
2026-04-25 21:39 27.38963 -80.40075 22929 ft 428 kts 162°
2026-04-25 21:39 27.36154 -80.38966 22925 ft 428 kts 162°
2026-04-25 21:39 27.33342 -80.37856 22924 ft 428 kts 162°
2026-04-25 21:40 27.30547 -80.36753 22916 ft 421 kts 162°
2026-04-25 21:40 27.27815 -80.35675 22918 ft 413 kts 162°
2026-04-25 21:40 27.25110 -80.34608 22917 ft 411 kts 162°
2026-04-25 21:40 27.22404 -80.33543 22932 ft 413 kts 162°
2026-04-25 21:41 27.19697 -80.32480 22890 ft 410 kts 162°
2026-04-25 21:41 27.16997 -80.31429 22412 ft 411 kts 162°
2026-04-25 21:41 27.14304 -80.30384 22080 ft 408 kts 162°
2026-04-25 21:41 27.11626 -80.29346 21735 ft 406 kts 162°
2026-04-25 21:42 27.08955 -80.28311 21400 ft 405 kts 162°
2026-04-25 21:42 27.06301 -80.27282 21067 ft 403 kts 162°
2026-04-25 21:42 27.03691 -80.26270 20736 ft 400 kts 162°
2026-04-25 21:42 27.01077 -80.25257 20472 ft 395 kts 162°
2026-04-25 21:43 26.98482 -80.24252 20104 ft 394 kts 162°
2026-04-25 21:43 26.95892 -80.23249 19788 ft 395 kts 162°
2026-04-25 21:43 26.93287 -80.22241 19451 ft 397 kts 162°
2026-04-25 21:43 26.90682 -80.21232 19122 ft 395 kts 162°
2026-04-25 21:44 26.88100 -80.20233 18802 ft 392 kts 162°
2026-04-25 21:44 26.85523 -80.19240 18482 ft 390 kts 163°
2026-04-25 21:44 26.80388 -80.17333 17847 ft 387 kts 163°
2026-04-25 21:45 26.77838 -80.16394 17540 ft 384 kts 163°
2026-04-25 21:45 26.76985 -80.16079 17445 ft 383 kts 163°
2026-04-25 21:45 26.72832 -80.14541 16960 ft 374 kts 163°
2026-04-25 21:45 26.70357 -80.13652 16679 ft 373 kts 166°
2026-04-25 21:46 26.67843 -80.12941 16392 ft 373 kts 169°
2026-04-25 21:46 26.65306 -80.12296 16090 ft 374 kts 169°
2026-04-25 21:46 26.62771 -80.11640 15780 ft 373 kts 169°
2026-04-25 21:46 26.60254 -80.10969 15480 ft 370 kts 168°
2026-04-25 21:47 26.57763 -80.10320 15178 ft 366 kts 169°
2026-04-25 21:47 26.55289 -80.09704 14878 ft 362 kts 170°
2026-04-25 21:47 26.52837 -80.09099 14580 ft 360 kts 170°
2026-04-25 21:47 26.50394 -80.08494 14287 ft 359 kts 169°
2026-04-25 21:48 26.47961 -80.07888 14002 ft 358 kts 169°
2026-04-25 21:48 26.45537 -80.07288 13702 ft 356 kts 171°
2026-04-25 21:48 26.43112 -80.06757 13423 ft 355 kts 172°
2026-04-25 21:48 26.41504 -80.06424 13237 ft 354 kts 172°
2026-04-25 21:49 26.39091 -80.05920 12946 ft 352 kts 171°
2026-04-25 21:49 26.35986 -80.05102 12748 ft 337 kts 168°
2026-04-25 21:49 26.33756 -80.04470 12613 ft 323 kts 168°
2026-04-25 21:49 26.31629 -80.03870 12486 ft 310 kts 168°
2026-04-25 21:50 26.29559 -80.03296 12369 ft 303 kts 168°
2026-04-25 21:50 26.28176 -80.02917 12300 ft 303 kts 169°
2026-04-25 21:50 26.26113 -80.02383 12179 ft 306 kts 174°
2026-04-25 21:50 26.24027 -80.02410 12053 ft 304 kts 192°
2026-04-25 21:51 26.21962 -80.02865 11940 ft 303 kts 195°
2026-04-25 21:51 26.19903 -80.03368 11816 ft 302 kts 195°
2026-04-25 21:51 26.17849 -80.03870 11678 ft 303 kts 195°
2026-04-25 21:51 26.15789 -80.04361 11552 ft 302 kts 194°
2026-04-25 21:52 26.13729 -80.04843 11428 ft 302 kts 194°
2026-04-25 21:52 26.11670 -80.05317 11304 ft 302 kts 194°
2026-04-25 21:52 26.09613 -80.05787 11165 ft 302 kts 194°
2026-04-25 21:52 26.07560 -80.06256 11040 ft 301 kts 193°
2026-04-25 21:53 26.05498 -80.06752 10803 ft 304 kts 195°
2026-04-25 21:53 26.03441 -80.07288 10550 ft 302 kts 195°
2026-04-25 21:53 26.01411 -80.07825 10284 ft 298 kts 195°
2026-04-25 21:53 25.99415 -80.08349 10034 ft 291 kts 194°
2026-04-25 21:54 25.97499 -80.08849 9797 ft 283 kts 194°
2026-04-25 21:54 25.95596 -80.09343 9567 ft 278 kts 194°
2026-04-25 21:54 25.93709 -80.09833 9335 ft 279 kts 194°
2026-04-25 21:54 25.91945 -80.10699 9084 ft 279 kts 218°
2026-04-25 21:55 25.90558 -80.12204 8884 ft 279 kts 228°
2026-04-25 21:55 25.89262 -80.13820 8645 ft 281 kts 229°
2026-04-25 21:55 25.88187 -80.15623 8376 ft 282 kts 249°
2026-04-25 21:55 25.87817 -80.17728 8163 ft 277 kts 267°
2026-04-25 21:56 25.87769 -80.19853 7832 ft 276 kts 269°
2026-04-25 21:56 25.87750 -80.21261 7553 ft 276 kts 269°
2026-04-25 21:56 25.87688 -80.24114 6977 ft 276 kts 268°
2026-04-25 21:56 25.87627 -80.26244 6541 ft 277 kts 268°
2026-04-25 21:57 25.87595 -80.28383 6102 ft 276 kts 275°
2026-04-25 21:57 25.88152 -80.30393 5802 ft 271 kts 296°
2026-04-25 21:57 25.89036 -80.32218 5504 ft 266 kts 299°
2026-04-25 21:57 25.89933 -80.33997 5214 ft 263 kts 299°
2026-04-25 21:58 25.90818 -80.35774 4938 ft 263 kts 299°
2026-04-25 21:58 25.91697 -80.37559 4660 ft 263 kts 299°
2026-04-25 21:58 25.92570 -80.39340 4359 ft 263 kts 299°
2026-04-25 21:58 25.93441 -80.41121 4106 ft 261 kts 298°
2026-04-25 21:59 25.94291 -80.42860 4028 ft 250 kts 298°
2026-04-25 21:59 25.95101 -80.44513 4001 ft 237 kts 299°
2026-04-25 21:59 25.95848 -80.46050 4006 ft 223 kts 299°
2026-04-25 22:00 25.97183 -80.49044 3845 ft 208 kts 280°
2026-04-25 22:00 25.97026 -80.50564 3706 ft 195 kts 242°
2026-04-25 22:00 25.96122 -80.51571 3571 ft 183 kts 202°
2026-04-25 22:00 25.94922 -80.52031 3526 ft 183 kts 198°
2026-04-25 22:01 25.93701 -80.52476 3542 ft 186 kts 196°
2026-04-25 22:01 25.92440 -80.52865 3523 ft 190 kts 185°
2026-04-25 22:01 25.91185 -80.52532 3460 ft 187 kts 142°
2026-04-25 22:01 25.90624 -80.51831 3418 ft 184 kts 118°
2026-04-25 22:02 25.89838 -80.50138 3323 ft 186 kts 117°
2026-04-25 22:02 25.89248 -80.48866 3246 ft 185 kts 116°
2026-04-25 22:02 25.88682 -80.47582 3170 ft 185 kts 115°
2026-04-25 22:02 25.88098 -80.46312 3089 ft 184 kts 117°
2026-04-25 22:03 25.87487 -80.45079 2984 ft 182 kts 118°
2026-04-25 22:03 25.86870 -80.43858 2753 ft 180 kts 118°
2026-04-25 22:03 25.86262 -80.42660 2519 ft 177 kts 119°
2026-04-25 22:03 25.85677 -80.41517 2304 ft 167 kts 119°
2026-04-25 22:04 25.85123 -80.40431 2075 ft 153 kts 120°
2026-04-25 22:04 25.84632 -80.39466 1885 ft 141 kts 120°
2026-04-25 22:04 25.84158 -80.38538 1710 ft 136 kts 119°
2026-04-25 22:04 25.83703 -80.37645 1528 ft 130 kts 118°
2026-04-25 22:05 25.83267 -80.36786 1364 ft 127 kts 119°
2026-04-25 22:05 25.82831 -80.35929 1196 ft 128 kts 119°
2026-04-25 22:05 25.82390 -80.35065 1020 ft 129 kts 119°
2026-04-25 22:05 25.81950 -80.34202 843 ft 129 kts 119°
2026-04-25 22:06 25.81509 -80.33334 683 ft 129 kts 119°
2026-04-25 22:06 25.81064 -80.32460 510 ft 131 kts 119°
2026-04-25 22:06 25.80620 -80.31570 364 ft 133 kts 121°
2026-04-25 22:06 25.80156 -80.30693 148 ft 131 kts 119°
2026-04-25 22:07 25.79727 -80.29830 13 ft 121 kts 120°
2026-04-25 22:07 25.79481 -80.29353 16 ft 94 kts 118°
2026-04-25 22:07 25.79138 -80.28679 15 ft 50 kts 120°
2026-04-25 22:07 25.79116 -80.28462 15 ft 12 kts 58°
2026-04-25 22:08 25.79139 -80.28430 16 ft 0 kts 41°
2026-04-25 22:09 25.79139 -80.28429 16 ft 0 kts 41°
2026-04-25 22:09 25.79156 -80.28414 17 ft 8 kts 39°
2026-04-25 22:09 25.79170 -80.28364 18 ft 7 kts 110°
2026-04-25 22:09 25.79139 -80.28305 20 ft 15 kts 120°
2026-04-25 22:10 25.79076 -80.28195 22 ft 15 kts 122°
2026-04-25 22:10 25.79057 -80.28112 21 ft 6 kts 80°
2026-04-25 22:10 25.79056 -80.28065 21 ft 6 kts 101°
2026-04-25 22:10 25.79054 -80.28020 21 ft 6 kts 72°
2026-04-25 22:11 25.79069 -80.27986 20 ft 3 kts 59°
2026-04-25 22:11 25.79072 -80.27981 20 ft 0 kts 59°